Theta_e
320 319 319 320 319 319 319 320 320 320 320 320 320 320 320 320 321 321 320 320 320 320 319 319 320 320 320 320 320 321 319 320 320 321 321 325 341 344 347 344 342 350 340 321 322 326 328 331 334 339 336 335 338 337 340 341 342 341 332 327 323 324 322 330 328 332 333 330 334 338 340 337 333 339 340 341 337 336 333 331 331 331 333 335 336 338 339 340
319 319 319 319 320 319 320 320 319 320 320 320 320 320 320 321 321 321 320 320 320 319 320 319 320 320 320 320 321 321 320 320 319 319 318 334 344 349 340 353 344 348 341 319 320 325 330 331 333 334 332 333 342 336 342 343 343 335 331 328 320 326 329 336 336 337 333 331 336 337 340 339 336 339 339 333 330 332 327 328 330 330 333 335 335 337 338 339
319 319 319 319 319 319 319 319 319 319 319 320 320 320 320 320 320 320 320 320 319 319 319 319 319 320 320 320 321 321 320 320 323 321 325 347 347 342 344 347 344 348 321 319 322 328 332 331 332 332 335 334 339 333 338 337 341 339 330 324 327 333 334 336 339 337 340 338 337 337 338 339 340 339 339 333 329 329 327 326 328 329 329 331 333 336 337 338
319 319 319 319 319 319 319 319 320 319 319 319 319 319 319 320 319 319 319 319 319 319 319 319 319 319 320 321 321 322 321 321 318 322 328 346 342 345 342 347 346 340 321 322 327 333 334 331 329 330 334 332 335 336 333 340 334 336 333 327 330 335 333 337 340 340 341 341 338 339 340 337 338 339 338 334 328 329 330 331 329 328 329 331 334 335 336 336
319 319 319 318 318 319 319 319 319 319 319 319 319 319 319 319 319 319 319 319 319 319 318 319 319 320 320 321 320 322 320 310 322 331 337 345 344 343 346 345 348 321 320 323 327 334 332 327 326 328 332 330 332 334 333 340 339 337 331 337 336 337 334 339 342 344 340 342 341 340 335 334 341 341 336 333 327 324 329 332 332 332 332 333 333 335 336 336
319 319 318 318 318 319 319 319 319 319 319 318 319 319 319 319 318 319 319 318 318 318 318 319 319 320 321 321 322 321 316 301 319 329 346 349 344 342 347 350 345 325 321 321 326 333 328 325 324 322 330 331 332 328 334 337 339 330 336 336 339 339 335 342 341 340 343 339 338 337 337 339 338 337 338 336 332 334 338 334 333 334 335 335 336 336 335 335
319 318 318 318 318 318 318 318 318 318 318 318 319 318 318 318 318 318 318 318 318 318 319 319 320 321 321 321 321 320 315 315 329 332 355 350 347 346 345 342 343 325 324 321 327 330 326 322 322 323 329 329 331 330 335 337 338 333 330 337 338 340 338 343 339 339 341 339 337 340 339 337 336 329 337 335 335 339 338 334 334 335 336 336 335 335 334 335
318 318 318 318 318 318 318 318 318 318 318 319 318 318 318 318 318 318 317 317 318 318 319 319 320 321 321 321 320 319 318 313 334 336 342 346 335 332 331 318 319 320 322 323 327 327 324 320 319 326 328 328 334 331 334 333 334 332 333 337 334 339 340 338 339 340 339 340 341 340 337 334 338 335 337 334 335 335 334 334 334 334 334 334 334 333 334 334
318 318 318 318 318 318 318 318 318 318 318 318 318 318 318 318 317 317 317 317 318 318 319 320 320 321 322 320 316 312 312 328 336 334 343 329 323 321 317 314 319 318 322 326 329 327 323 320 321 325 325 330 333 332 331 329 328 335 334 336 338 337 337 339 339 341 342 343 341 337 336 340 339 341 335 335 336 338 335 333 333 333 332 333 332 333 333 334
318 318 318 318 318 318 318 318 318 318 318 318 318 318 317 317 316 317 317 317 318 318 319 320 321 321 320 319 318 310 320 329 334 335 326 324 319 316 315 317 319 319 321 325 326 325 322 320 321 331 335 332 333 327 328 328 330 336 335 333 336 335 338 339 338 337 344 343 341 336 335 337 343 336 326 336 336 335 332 332 332 331 330 332 333 333 334 334
318 319 318 318 318 318 317 318 318 318 318 318 318 317 316 316 316 317 317 317 317 318 319 320 321 321 320 322 315 312 322 323 331 330 327 322 317 314 313 317 319 319 323 325 322 324 324 322 324 330 334 330 331 327 327 335 339 339 336 337 335 339 339 341 342 341 341 338 343 340 336 339 339 336 327 333 336 335 331 330 330 330 329 331 332 333 334 335
318 318 318 318 318 318 318 318 318 317 318 318 317 316 316 316 316 316 317 317 318 318 319 321 321 322 323 320 317 316 322 324 328 328 324 321 317 316 315 318 320 321 325 322 320 322 323 322 323 326 326 333 323 326 333 340 339 340 336 330 332 337 334 337 337 338 341 335 343 340 333 330 331 327 333 333 337 334 332 329 329 329 330 331 332 332 335 335
318 318 318 318 318 318 318 318 318 318 318 317 317 316 316 316 316 316 317 317 318 319 321 322 323 325 323 315 318 321 321 327 328 325 323 322 322 319 319 322 322 323 326 323 321 322 323 322 322 322 334 332 329 317 341 342 339 338 335 331 330 329 328 334 339 338 338 339 343 343 316 322 330 332 335 337 335 332 331 328 328 329 329 330 331 332 334 335
319 318 318 318 318 318 318 318 317 317 316 316 316 315 315 315 315 316 317 317 319 319 320 322 324 324 321 319 319 319 323 327 326 323 321 323 322 320 324 325 324 324 327 325 325 324 322 323 325 329 334 332 328 333 325 333 337 328 332 332 325 321 321 334 333 337 334 341 343 340 317 321 332 332 335 337 336 331 327 328 328 328 328 330 331 332 333 334
318 318 318 318 318 317 317 317 317 316 316 315 315 314 314 314 315 316 318 318 320 322 322 323 324 321 320 324 320 322 351 330 321 321 322 320 318 317 319 321 321 324 326 326 325 325 325 325 326 324 324 335 334 325 319 328 328 331 323 318 325 320 324 330 337 336 330 336 342 334 320 322 328 332 336 338 337 334 328 328 328 328 329 331 331 332 332 333
318 318 318 317 317 317 317 317 316 315 315 315 314 314 315 316 317 318 319 320 322 323 325 323 326 322 315 313 315 329 323 316 319 323 322 321 318 315 319 319 322 324 323 323 324 324 325 323 319 323 328 330 325 321 318 316 323 326 321 320 318 320 320 324 331 336 337 335 337 333 322 326 327 334 335 337 337 334 331 329 328 329 330 330 330 333 333 333
318 318 318 317 317 317 317 316 315 315 315 315 314 315 316 319 319 320 320 321 323 326 325 324 325 329 314 316 320 315 316 321 324 322 321 322 318 318 319 318 318 320 321 321 320 319 320 317 319 321 326 323 325 321 313 312 317 320 323 321 322 318 321 319 331 335 336 334 330 332 326 325 330 334 334 336 336 333 329 330 329 330 330 331 330 332 332 333
318 318 318 317 317 317 316 316 316 315 315 314 314 315 316 320 321 319 322 320 325 328 327 328 325 316 311 318 308 312 321 322 321 321 321 322 323 319 317 316 318 318 318 316 318 313 315 311 315 313 320 322 322 320 312 308 313 317 316 318 319 321 322 321 322 328 333 332 329 331 326 326 330 333 334 335 335 333 330 330 330 330 330 331 329 332 332 333
318 318 317 317 316 316 316 316 315 315 314 314 315 316 318 319 320 323 320 326 322 323 318 314 315 305 301 310 318 321 323 324 324 320 319 319 322 320 318 318 317 315 311 310 311 311 312 309 313 312 313 317 318 319 315 316 319 316 319 320 320 316 318 321 326 332 333 328 326 327 324 327 328 332 335 335 335 332 331 331 332 331 331 332 330 332 331 332
318 317 317 317 316 316 315 315 315 314 313 315 325 323 324 322 320 316 323 324 321 316 311 311 313 313 312 312 315 323 326 325 319 319 321 322 319 316 314 314 313 314 311 306 309 309 312 304 304 307 313 318 321 321 319 319 323 319 319 321 320 318 320 327 325 331 334 329 325 329 328 329 329 330 334 338 335 334 332 329 330 331 331 331 329 332 332 333
317 317 317 316 316 315 315 315 314 314 313 316 320 320 316 310 306 305 311 317 322 318 312 312 313 312 313 317 318 317 314 316 321 319 321 324 320 315 310 311 309 306 308 310 309 311 310 303 304 310 315 318 320 322 321 319 318 321 318 320 318 321 318 326 327 331 334 326 325 329 327 328 330 333 333 335 336 334 335 331 329 330 330 332 331 333 334 334
317 317 316 316 316 316 315 314 314 313 311 316 319 318 319 315 316 317 315 309 316 313 311 310 313 312 318 318 319 319 317 313 316 319 322 320 318 311 311 309 306 303 308 309 310 306 303 302 305 310 315 317 319 321 320 318 314 314 317 316 317 317 324 329 330 330 330 328 322 325 322 327 330 332 336 336 334 334 336 335 332 331 330 333 331 333 334 335
317 317 316 316 316 315 314 314 313 311 317 320 320 320 318 318 321 324 320 314 311 312 310 310 306 311 314 315 316 320 313 312 311 316 318 318 315 312 312 307 306 305 307 308 305 304 300 304 308 311 313 314 317 319 317 317 315 312 313 314 311 320 319 316 324 328 328 325 323 325 322 323 331 334 335 337 337 335 337 337 337 335 330 332 332 333 335 334
317 317 316 316 316 315 314 313 310 314 317 320 319 320 322 322 322 323 317 310 308 307 311 311 312 312 311 311 316 315 313 314 315 313 320 316 312 315 312 309 307 305 304 306 307 305 304 308 311 310 311 312 315 316 314 312 310 313 313 313 314 319 318 318 323 326 328 329 327 325 322 321 325 326 327 334 340 337 339 336 336 339 335 335 334 337 339 336
316 316 316 316 315 314 312 308 313 320 324 323 320 325 324 324 326 324 315 312 309 305 312 310 314 315 315 321 318 311 315 317 316 318 318 315 313 312 310 313 310 305 305 307 307 306 307 312 312 309 309 312 316 314 313 312 309 311 314 313 316 318 317 324 325 324 323 319 324 322 310 312 321 326 327 334 335 333 335 334 335 336 334 334 333 334 337 339
316 316 316 316 315 314 308 312 321 322 320 319 320 323 325 324 326 326 316 306 299 305 309 302 312 308 318 311 316 315 317 311 318 319 318 316 320 313 311 308 311 305 306 306 305 306 307 313 312 309 308 314 316 314 315 314 310 309 310 316 315 317 320 322 322 321 314 312 320 325 310 308 321 321 326 329 329 330 334 334 334 336 335 333 335 334 336 338
316 316 316 315 315 310 316 316 323 320 316 317 323 324 324 323 333 323 311 302 296 303 304 310 312 309 315 314 316 317 302 309 319 319 316 318 313 318 308 307 309 310 311 310 306 302 309 309 311 311 309 312 313 311 314 315 311 307 314 314 314 315 320 321 322 317 316 324 324 322 318 311 310 318 326 330 328 327 330 334 334 335 335 333 333 333 337 339
316 315 314 314 313 310 318 320 319 316 318 321 325 324 325 330 328 322 309 293 289 307 303 306 309 318 314 314 316 312 312 315 308 313 317 318 316 313 310 308 307 307 309 307 298 307 309 307 309 310 312 312 311 314 315 316 311 311 314 315 313 314 315 316 316 315 317 313 312 317 321 311 310 319 326 328 324 326 327 330 333 336 336 335 334 334 336 339
315 314 314 314 313 311 316 317 319 317 322 325 325 325 324 330 321 311 303 290 301 305 317 305 318 313 313 314 312 314 312 315 308 310 316 318 318 315 307 310 311 309 311 309 303 306 309 311 312 313 312 311 314 316 316 316 310 314 315 316 314 314 315 314 311 310 313 311 306 313 318 308 310 319 319 324 322 322 326 330 333 334 336 335 334 335 337 338
314 313 313 312 312 316 315 318 320 326 327 326 325 326 324 320 314 303 298 288 305 298 307 308 308 306 311 306 309 311 310 312 314 313 315 311 314 316 314 317 312 309 308 310 308 310 312 316 318 313 311 314 315 315 316 316 315 317 315 312 312 311 312 313 312 311 312 305 308 316 318 314 307 316 319 320 320 325 328 331 333 336 335 337 338 337 336 337
312 312 311 311 316 323 324 318 325 328 329 328 326 323 320 315 304 298 290 295 307 303 309 307 305 310 307 306 304 307 311 311 310 313 309 312 311 312 313 310 314 308 307 308 307 308 310 313 312 314 316 315 315 312 315 317 317 315 312 310 309 308 310 309 308 312 303 301 312 319 319 317 306 313 322 327 330 330 330 330 330 332 335 337 339 339 337 337
311 309 310 312 320 323 315 314 321 326 331 327 324 319 314 303 306 297 294 308 296 301 303 304 307 307 307 308 307 305 306 308 311 310 308 307 308 305 308 305 306 301 300 303 302 308 306 308 313 313 318 314 311 309 310 313 315 313 311 309 303 303 304 300 305 300 302 302 314 319 319 313 311 317 321 327 329 330 332 333 333 333 335 336 337 338 338 337
310 309 309 311 315 318 321 323 326 331 329 327 321 317 308 301 291 299 299 302 297 305 303 308 306 306 307 306 305 307 309 305 310 309 311 308 307 306 310 308 310 306 299 303 302 302 304 310 310 311 312 315 312 305 305 305 310 309 307 306 302 299 299 296 301 304 305 309 316 317 320 313 320 322 324 324 330 333 333 335 337 337 335 334 338 340 339 337
309 309 316 320 317 322 324 330 330 328 326 324 319 311 307 297 295 306 301 301 301 306 305 305 306 305 306 303 305 307 303 309 307 308 310 306 306 303 306 309 310 307 305 305 300 301 297 299 305 309 305 313 311 309 309 308 309 309 311 308 305 304 300 297 300 298 302 304 313 318 311 308 307 319 326 329 331 332 334 336 339 341 341 338 339 340 338 337
307 310 318 326 326 327 328 330 330 330 326 320 313 308 298 297 300 298 300 302 304 306 303 305 303 303 304 304 307 307 307 303 307 307 307 306 303 305 305 305 309 309 308 301 305 304 301 301 308 312 311 312 309 312 313 311 308 309 310 311 306 304 309 300 305 304 304 305 308 310 310 314 315 324 330 330 330 330 333 334 336 335 337 339 340 339 341 337
313 328 326 322 324 332 336 333 332 330 325 315 308 303 298 300 298 303 301 306 306 303 303 305 304 301 301 302 304 304 309 303 305 306 305 306 306 305 307 308 308 309 307 302 304 299 303 299 308 310 312 310 310 312 311 312 299 306 307 303 306 312 309 306 306 308 309 306 304 314 311 318 322 325 327 329 328 328 331 332 332 333 335 336 337 339 341 341
323 324 324 326 326 329 325 325 325 326 322 314 307 298 301 304 305 305 308 305 304 306 305 299 300 300 299 299 301 302 304 304 305 304 301 307 304 307 307 308 311 309 310 307 303 308 299 301 308 308 306 311 313 312 311 311 310 307 302 306 312 314 312 307 300 305 302 299 304 310 309 309 313 308 324 325 325 325 328 330 332 333 333 333 336 340 341 340
325 323 325 324 322 323 324 326 326 324 317 311 303 303 306 302 307 307 308 307 307 307 303 302 301 303 300 300 300 301 304 300 301 303 301 305 299 308 307 307 310 310 310 312 305 307 308 299 305 308 308 310 313 311 308 311 312 307 306 313 304 300 299 306 303 296 297 298 301 308 310 309 312 312 320 320 321 324 326 328 330 332 334 335 337 340 341 341
327 320 317 321 323 323 323 326 323 320 313 306 305 302 304 306 307 307 308 308 309 305 302 303 300 303 303 300 301 302 302 298 302 301 300 302 299 306 306 309 307 310 310 310 307 308 309 299 302 309 309 310 310 308 300 304 309 311 311 308 311 307 304 302 303 304 304 300 300 302 306 304 315 317 321 321 323 325 325 327 329 331 334 336 338 340 341 343
317 314 314 323 325 324 328 322 317 314 309 303 303 303 305 304 306 308 308 308 305 304 304 303 305 302 303 303 303 301 303 303 302 302 302 304 302 307 305 309 306 309 309 311 308 310 304 310 298 305 310 309 302 306 303 304 302 303 304 304 306 306 310 307 306 304 301 300 300 300 299 308 321 328 322 325 326 331 330 328 330 333 334 337 337 338 340 342
324 316 315 323 323 323 322 317 311 308 307 308 306 305 305 304 305 308 309 308 307 309 304 304 304 301 303 302 302 305 303 304 303 302 303 303 303 300 307 308 309 307 310 309 307 309 304 305 300 304 303 303 305 309 308 307 307 305 304 303 305 304 301 299 298 308 306 302 297 299 298 310 326 336 333 326 331 330 330 331 330 331 333 335 335 337 340 340
315 310 312 322 323 321 316 308 310 308 307 305 302 305 302 309 307 306 307 309 307 307 309 307 307 305 305 303 304 303 303 302 304 303 303 301 304 305 307 310 310 310 307 305 306 309 309 305 302 300 303 304 307 310 311 311 310 309 307 304 307 306 306 302 295 301 305 306 307 305 303 309 327 331 332 331 330 330 331 330 330 332 332 334 335 335 336 342
314 312 322 325 321 319 313 308 312 307 306 306 308 307 307 307 306 306 307 308 307 307 307 306 305 305 306 305 305 304 305 302 303 302 303 304 305 307 308 309 310 309 309 307 310 309 317 304 301 302 306 308 310 312 312 311 309 307 308 309 306 303 304 304 304 305 302 304 302 303 303 310 324 332 333 333 333 333 336 336 336 333 334 335 338 339 339 340
315 316 314 319 322 319 311 304 305 306 306 308 306 306 306 306 305 305 307 307 305 307 305 305 306 307 305 307 305 303 305 300 304 303 301 305 304 309 308 309 310 307 308 306 305 309 303 307 302 299 299 302 304 307 306 309 308 305 305 308 309 308 307 307 307 308 302 303 303 300 297 307 326 333 333 331 329 329 332 338 338 336 337 339 339 344 344 343
316 319 313 315 319 317 307 309 306 306 306 306 306 305 305 306 307 306 306 305 307 307 307 305 306 307 307 307 305 306 306 304 301 305 304 305 304 308 309 308 309 307 310 311 318 311 305 305 303 296 295 293 293 295 297 300 302 306 307 307 309 307 307 304 300 303 296 305 305 301 307 316 326 331 330 330 328 330 334 334 336 339 338 339 342 342 342 345
312 308 311 312 314 312 312 313 311 307 306 305 302 303 304 305 306 307 306 307 306 308 308 307 309 307 306 305 304 303 303 306 303 302 303 303 305 306 309 309 308 308 314 316 312 311 305 307 306 304 300 298 301 304 307 308 306 303 304 306 306 309 308 307 305 303 299 304 302 308 314 317 319 325 326 329 329 328 329 332 331 335 338 341 343 343 344 345
314 308 310 307 311 308 308 308 307 306 304 308 304 305 304 305 304 305 307 304 307 306 308 306 306 304 304 304 303 303 304 303 306 305 303 304 305 307 308 308 309 310 316 309 316 308 306 302 305 306 305 305 306 306 307 308 305 306 305 305 307 307 308 306 303 302 313 304 299 312 318 313 316 323 326 328 330 328 329 330 331 332 333 337 339 341 343 343
308 313 314 315 306 304 305 305 309 307 308 306 305 306 303 304 305 303 307 305 307 308 304 306 307 305 306 305 305 301 303 302 304 302 304 305 304 306 304 307 307 314 314 308 311 307 304 301 305 305 305 306 307 307 308 307 307 306 307 306 305 306 306 305 306 307 308 304 302 312 316 312 314 321 324 327 329 330 327 329 331 332 336 335 337 336 336 338
317 316 317 315 307 311 309 308 308 307 306 306 305 304 303 303 303 304 304 303 306 306 307 304 304 306 307 307 305 304 305 300 300 305 305 305 304 305 303 305 307 309 308 307 309 312 306 302 304 306 304 305 305 306 307 306 306 307 307 307 308 307 308 307 307 307 307 309 309 311 319 317 320 321 324 327 331 331 333 336 332 331 333 334 332 334 335 337
315 316 313 318 314 310 311 310 308 305 305 306 303 304 305 304 304 304 304 301 303 305 305 304 305 306 308 307 308 303 306 306 306 304 306 305 304 306 304 305 303 307 308 306 307 311 305 302 305 304 303 303 306 307 307 306 305 305 306 307 308 308 308 309 308 309 310 307 308 309 318 317 324 327 327 330 332 333 334 335 335 333 332 334 333 336 335 336
323 325 324 315 310 309 311 309 307 305 305 306 303 306 304 304 304 306 304 306 304 305 306 305 306 306 306 308 307 306 308 309 308 307 307 307 303 306 304 306 307 304 306 306 306 307 306 303 306 304 300 301 305 305 304 305 305 304 305 306 308 309 307 310 310 313 311 308 311 310 310 316 322 328 330 331 331 331 332 334 335 336 336 336 334 335 334 334
326 331 330 320 311 315 308 309 308 306 302 308 307 305 305 306 307 304 303 306 307 307 307 306 307 306 307 306 306 307 309 309 310 310 310 310 310 309 309 309 309 307 305 305 308 303 305 304 301 302 298 298 302 303 303 304 302 300 303 307 310 310 311 314 315 315 314 316 311 309 312 320 327 329 324 327 329 330 330 331 331 332 334 334 332 333 335 335
Wind_Speed
11 12 12 12 12 12 13 13 13 13 13 12 12 12 11 11 11 11 11 11 11 11 12 13 13 14 14 14 15 15 14 12 14 12 12 18 6 6 7 10 9 8 6 7 10 11 12 11 11 10 9 8 5 7 2 4 8 4 2 2 3 3 6 4 6 4 6 11 10 8 8 11 10 5 7 7 8 9 10 10 13 16 16 19 21 20 20 19
12 12 12 12 12 13 13 13 13 13 13 13 13 13 12 12 12 12 12 11 12 12 12 13 14 14 14 14 14 15 13 12 13 15 19 9 11 7 7 5 9 8 7 11 12 12 11 10 9 9 8 8 3 5 4 2 8 3 2 3 4 2 3 8 3 7 11 11 12 10 8 7 11 11 8 9 12 10 12 12 15 20 21 21 21 20 19 19
12 12 12 12 12 12 12 13 13 13 13 13 13 12 12 12 12 12 12 12 12 12 13 13 13 14 14 14 13 14 13 13 13 18 19 11 10 10 9 8 9 10 13 12 12 12 10 10 7 7 8 7 4 3 2 3 5 0 1 2 2 6 8 7 6 3 7 15 12 13 10 11 10 9 9 11 13 11 11 15 19 20 21 21 21 19 19 18
13 13 12 11 11 12 12 13 13 13 13 13 13 13 12 12 12 12 12 12 13 13 12 13 13 13 14 14 13 13 11 12 9 4 10 7 9 7 9 9 10 11 13 14 12 11 10 10 11 8 7 7 4 7 1 2 0 1 4 2 4 10 8 7 5 6 10 11 13 12 12 12 11 9 9 12 12 9 12 15 17 21 21 22 20 19 18 18
13 13 12 12 12 11 12 12 13 14 13 13 13 13 13 13 13 12 12 12 13 13 12 13 13 13 13 12 13 10 10 8 6 7 8 8 8 9 8 10 9 12 14 12 13 14 11 11 9 8 7 6 2 8 4 3 2 1 3 4 5 7 7 4 5 4 7 8 11 11 12 11 9 9 11 11 9 8 9 16 18 20 21 21 21 19 17 18
13 13 12 12 12 12 12 12 12 13 14 13 14 14 14 13 12 13 13 13 13 13 13 12 13 13 14 11 11 9 6 1 4 6 4 6 8 8 6 6 8 11 11 13 12 11 10 10 10 8 6 7 7 4 3 4 0 3 5 10 2 3 8 4 6 5 2 6 9 11 10 11 9 10 9 8 8 7 8 17 18 20 20 20 19 18 18 18
13 13 13 13 12 12 12 12 12 12 13 14 14 14 14 14 13 13 13 13 13 13 13 13 12 13 13 13 11 8 8 11 1 6 10 7 6 6 5 5 5 9 11 12 12 11 9 10 9 9 7 5 3 4 7 3 3 3 6 8 5 3 9 7 8 3 1 6 8 8 13 11 12 13 8 9 10 9 9 18 19 19 19 19 19 18 17 17
14 13 13 13 13 12 12 12 13 13 13 13 14 15 14 14 13 13 13 14 13 13 13 13 12 12 13 10 7 7 9 7 9 7 9 8 8 7 5 7 9 9 11 13 11 11 9 10 10 6 9 5 1 6 4 6 5 3 6 4 8 7 12 11 5 4 4 5 8 10 11 12 9 9 10 11 10 13 15 18 19 19 19 18 18 18 17 16
14 14 13 13 13 13 13 13 13 13 13 14 14 14 15 15 14 13 13 14 14 13 13 13 12 11 10 7 7 9 5 6 8 9 10 11 10 9 9 7 11 11 10 11 12 11 9 7 10 9 3 7 4 13 9 7 5 5 8 11 8 10 13 8 5 5 3 2 7 11 9 9 10 11 11 10 10 11 16 18 19 19 18 17 17 17 15 15
15 14 14 14 14 14 13 14 14 13 13 13 13 13 15 15 14 14 13 13 13 13 12 13 12 11 9 6 8 8 3 6 9 10 9 9 10 10 11 9 11 12 11 11 11 12 11 8 9 4 5 7 10 10 10 2 8 9 8 12 10 12 6 5 8 5 2 5 5 10 10 7 6 3 8 7 12 15 17 19 18 17 17 17 16 15 14 15
15 15 15 15 15 15 15 14 14 15 15 14 14 14 15 15 14 14 14 13 14 13 13 12 10 10 7 7 8 6 3 6 2 6 7 9 10 10 11 11 10 11 12 10 11 10 10 12 9 5 5 5 6 10 1 12 17 9 12 13 11 8 8 6 6 5 4 5 3 10 10 5 4 4 9 9 12 15 16 18 18 16 15 15 16 15 13 13
16 16 15 15 15 15 15 15 15 14 14 15 15 16 15 15 15 14 14 14 14 14 13 11 10 6 8 10 8 6 4 5 4 4 7 8 8 10 10 11 10 12 11 10 10 10 11 11 9 8 5 1 8 7 16 18 12 11 13 11 10 8 7 5 3 3 3 4 0 9 10 6 1 10 9 11 10 14 14 16 17 16 15 16 15 14 11 12
17 17 16 15 15 15 15 15 15 15 14 14 14 14 16 16 15 15 14 14 12 11 10 9 8 6 8 9 7 2 6 1 1 4 6 7 8 8 10 10 10 11 12 11 9 9 8 10 9 10 8 8 10 4 13 21 11 2 0 10 9 4 5 0 1 1 3 3 2 2 6 4 6 9 9 8 11 15 12 14 15 14 14 14 14 13 12 12
18 17 17 16 15 16 16 15 15 15 15 15 13 15 15 16 16 15 14 14 15 14 12 10 7 7 7 9 3 1 1 5 3 5 7 8 8 8 8 7 8 10 9 11 10 6 12 5 8 10 11 11 8 11 9 10 11 6 8 6 4 5 2 3 4 4 3 2 1 3 3 4 6 10 8 7 11 14 15 15 15 14 14 13 13 12 13 13
18 17 17 17 16 16 16 16 15 15 15 14 13 16 16 15 14 14 14 13 14 14 11 9 7 6 7 7 1 4 5 7 8 7 6 7 8 7 8 9 9 9 8 9 8 7 3 5 8 9 8 7 8 7 6 12 6 8 7 4 5 5 3 3 3 5 3 3 1 2 4 6 10 10 8 8 8 12 14 15 15 15 14 13 13 13 13 12
15 16 17 17 17 16 15 13 13 15 15 13 12 14 16 13 12 11 11 12 14 13 8 8 9 9 9 9 5 2 7 9 9 7 6 8 7 7 8 7 5 7 6 5 5 3 3 5 8 8 9 8 9 8 8 8 6 7 4 4 5 6 5 1 5 5 3 5 2 3 3 7 8 11 9 9 9 11 12 14 14 15 15 14 13 12 13 13
15 15 15 16 17 16 16 12 14 15 14 13 14 15 14 13 11 10 9 11 8 7 6 5 5 9 7 5 4 7 6 10 6 7 7 5 8 7 7 8 8 8 5 5 6 3 6 8 6 9 9 9 7 8 8 9 9 6 2 2 3 7 10 5 2 5 7 8 5 4 2 2 7 12 12 9 10 11 13 13 14 13 13 13 13 12 13 11
15 14 14 16 17 16 15 12 14 15 13 14 14 12 10 9 9 9 9 8 7 7 8 9 8 7 10 9 8 10 7 7 8 5 7 5 8 7 9 8 7 8 6 8 7 9 7 8 7 8 7 9 7 8 9 4 5 7 2 3 2 6 9 8 9 9 10 10 7 7 1 6 8 12 12 11 11 10 12 13 14 14 13 12 12 12 14 11
18 16 15 14 16 16 15 13 13 14 14 17 16 14 15 15 8 7 7 5 5 5 5 6 6 4 8 6 4 6 5 7 3 5 6 7 5 6 7 7 7 9 8 8 7 10 8 8 8 8 10 9 10 9 9 5 14 3 5 7 4 5 8 7 8 10 13 12 9 8 7 7 12 11 12 11 10 11 10 10 10 11 12 12 12 12 12 11
19 17 15 15 14 16 15 15 12 12 11 11 6 6 5 4 5 4 8 9 10 8 9 6 9 2 9 8 7 10 9 5 6 8 5 5 5 8 10 8 7 8 9 8 8 10 7 9 10 10 10 10 12 12 11 13 14 9 6 6 4 2 4 3 5 11 10 7 9 9 5 8 11 13 12 12 11 10 10 11 11 11 11 12 12 13 13 12
16 15 16 14 12 15 15 14 11 10 9 6 8 7 7 11 9 5 3 8 9 9 7 7 9 10 10 8 4 7 7 7 9 6 8 6 9 7 8 8 9 9 9 11 8 8 9 9 11 12 13 13 11 9 12 15 3 13 9 10 4 1 4 4 6 9 3 4 4 5 7 7 8 10 12 10 10 11 8 10 12 13 13 11 12 13 13 12
16 16 14 13 12 12 14 13 12 12 10 7 6 7 11 8 7 8 8 6 10 3 4 7 3 9 3 11 8 2 7 6 10 8 5 8 7 10 10 10 10 9 9 11 9 8 9 10 10 13 12 13 11 8 12 15 5 7 8 3 5 3 5 6 7 5 4 1 2 9 10 6 9 9 6 7 12 8 7 5 10 12 15 11 11 13 12 12
17 16 14 13 12 11 12 13 12 8 5 5 8 13 7 8 5 6 8 10 7 4 4 6 7 8 6 5 7 5 10 8 8 8 9 9 7 11 8 9 9 9 9 11 9 8 9 9 13 13 12 12 10 7 14 17 7 8 3 5 4 7 7 5 10 8 3 4 3 9 8 7 4 3 0 4 4 3 3 5 13 8 13 12 13 12 12 13
17 16 15 12 12 11 13 11 11 7 8 13 13 10 7 5 6 8 10 6 5 5 6 5 7 7 10 6 8 11 11 7 6 11 8 9 9 6 9 9 10 10 10 11 13 9 8 7 12 15 13 13 10 3 9 3 5 9 12 7 8 13 10 7 8 10 3 3 2 5 4 1 4 6 2 5 4 3 1 4 5 10 11 10 12 11 11 14
16 16 17 12 11 12 10 11 6 9 11 11 13 12 5 5 4 8 9 8 7 4 0 6 5 4 11 2 4 10 10 6 8 7 9 10 10 6 8 4 9 10 11 11 12 11 9 10 10 13 15 11 8 9 9 6 7 8 12 13 14 16 9 16 15 10 4 1 4 7 4 5 7 9 7 4 0 3 1 2 5 9 11 11 12 13 13 12
16 15 16 12 13 11 9 4 6 8 8 8 3 3 3 5 7 6 9 7 4 7 5 5 3 2 3 7 5 7 8 9 7 8 6 10 10 9 6 8 6 8 12 12 11 7 8 11 11 13 14 10 7 8 9 8 8 11 7 10 8 13 17 20 18 8 5 4 6 9 5 1 5 8 8 6 4 4 2 7 9 9 11 12 9 12 12 14
15 15 14 12 11 6 6 5 11 15 11 6 5 5 7 4 5 9 7 7 2 2 5 8 4 6 5 6 8 7 9 5 4 8 9 7 12 4 11 6 9 9 9 4 2 8 11 14 9 11 14 9 9 9 12 13 8 6 1 14 8 3 17 20 18 12 6 4 6 10 8 3 4 9 10 9 8 6 7 9 10 10 13 13 12 13 13 12
16 14 12 10 8 4 5 10 13 12 10 9 8 6 6 6 5 6 3 5 9 6 4 4 4 4 6 7 9 10 13 5 8 8 8 10 10 8 11 8 9 9 7 6 9 4 14 13 12 10 5 10 8 7 10 12 11 2 4 4 5 4 6 12 12 10 9 9 7 10 10 1 4 7 11 13 11 12 12 13 13 11 12 13 15 14 15 14
15 14 13 11 9 9 8 6 9 12 11 9 8 9 6 3 7 6 5 3 4 1 3 3 4 6 5 4 7 9 7 9 7 8 7 4 12 8 8 7 9 9 11 8 9 9 13 8 3 6 7 7 7 8 13 13 10 4 9 2 6 8 11 11 10 7 10 7 6 9 12 5 4 8 10 12 12 14 14 14 14 11 10 12 13 15 15 13
15 13 13 12 10 6 5 6 10 11 10 8 9 9 8 8 7 7 6 4 3 7 7 5 5 6 7 9 8 5 9 8 3 5 7 7 11 10 9 12 12 10 8 7 15 2 10 7 7 6 7 8 7 9 10 13 11 5 3 7 6 6 6 5 5 4 8 7 6 10 12 6 2 8 10 12 14 17 13 10 9 9 9 13 14 14 14 14
15 12 10 5 4 5 6 9 7 8 6 8 9 10 8 4 6 7 7 6 6 8 6 6 4 3 10 9 7 5 8 7 6 8 8 6 8 9 7 11 6 8 5 7 10 12 10 9 6 2 7 8 9 11 10 12 7 5 7 7 5 8 7 8 8 6 5 7 7 9 6 5 7 5 9 12 5 13 16 15 14 15 15 11 10 11 14 14
14 11 7 7 7 9 6 9 13 8 6 9 9 8 5 7 5 6 7 3 7 7 4 7 4 6 8 5 5 4 5 4 4 7 7 7 6 9 7 9 7 5 6 6 10 9 10 8 7 7 7 12 11 10 8 11 6 6 6 5 8 6 5 7 6 7 6 5 3 7 11 3 8 3 3 11 10 12 16 14 13 14 15 15 15 16 14 13
15 10 9 12 8 7 11 14 11 8 9 8 7 6 8 5 4 7 5 5 5 10 6 6 1 7 6 8 5 7 5 3 5 7 8 8 7 8 9 13 10 8 5 9 10 9 5 6 10 8 7 11 11 9 9 12 10 5 6 7 7 7 6 6 5 5 6 2 8 4 8 2 1 6 7 7 12 10 16 16 15 13 14 16 13 14 14 13
15 11 6 7 10 11 11 10 7 8 9 8 7 8 7 8 4 6 6 6 5 4 6 4 3 4 5 4 3 7 8 9 6 4 8 7 8 9 10 13 9 6 10 5 10 8 8 10 12 11 9 11 12 12 11 4 10 11 10 11 8 7 6 5 4 6 6 4 8 9 6 3 5 1 1 6 9 10 13 16 15 12 10 11 13 14 13 15
20 11 9 8 9 13 17 14 10 8 6 7 8 6 8 6 6 10 6 7 5 3 7 2 7 4 7 6 6 1 7 4 6 6 8 5 7 5 8 10 11 9 11 6 5 8 14 9 7 18 8 13 14 12 12 10 9 5 10 10 11 10 4 8 2 5 5 2 5 4 1 5 2 5 2 7 8 9 12 13 17 18 16 15 13 13 9 9
12 4 7 7 9 11 12 10 10 6 6 7 8 8 2 4 7 5 7 8 9 5 5 5 5 6 6 5 7 9 10 8 4 8 4 6 3 3 2 4 5 7 6 6 6 9 7 10 9 15 10 13 12 13 13 8 8 5 9 11 11 7 11 7 3 6 11 8 6 10 6 2 1 4 5 9 6 10 12 14 15 16 17 17 15 10 5 4
7 6 7 9 14 9 2 5 4 5 6 8 9 6 10 7 6 7 5 9 11 6 9 9 4 8 4 1 6 1 10 6 5 7 5 5 6 5 7 5 5 8 7 6 6 8 10 5 8 11 9 10 9 12 13 13 14 10 7 8 9 10 13 8 7 5 8 8 2 5 7 10 8 4 7 8 10 12 13 15 16 15 17 17 14 10 7 8
8 9 12 11 2 3 6 6 4 5 8 9 7 6 8 3 7 7 4 9 7 7 7 7 1 5 3 5 2 4 12 6 9 5 3 7 3 6 6 1 4 7 10 3 6 2 6 6 8 9 7 8 6 5 9 13 17 12 11 14 7 9 12 7 6 7 7 6 5 6 10 3 5 3 6 8 9 11 11 12 14 15 16 16 14 11 10 9
7 9 9 7 6 3 4 4 5 6 9 7 6 5 3 3 3 8 8 5 9 7 8 4 6 4 7 7 6 3 4 4 5 2 5 7 2 3 10 6 9 3 6 7 6 4 9 9 3 7 9 9 9 7 10 10 13 17 11 12 6 7 7 9 9 6 4 5 4 4 5 2 4 7 9 10 11 12 12 14 14 15 16 15 13 13 10 11
8 7 9 10 7 3 6 6 7 8 7 10 6 7 6 10 4 8 9 8 8 6 5 8 3 4 4 5 3 6 5 3 4 5 4 8 7 3 9 4 9 8 2 6 9 9 11 1 7 6 6 6 8 8 10 9 12 12 11 10 6 6 7 7 6 11 8 6 5 4 3 6 5 4 8 6 4 6 7 9 11 12 15 17 15 15 13 11
9 8 2 7 7 4 4 8 8 9 11 2 4 5 4 9 10 6 6 4 9 7 10 8 6 5 10 2 3 3 6 6 5 0 2 1 6 2 3 12 3 9 3 5 8 6 7 5 8 2 5 6 6 9 11 11 10 11 11 10 6 5 8 6 7 4 8 7 4 6 2 6 5 2 6 10 6 4 2 5 8 13 16 16 16 17 15 13
8 9 5 1 3 5 5 8 9 3 7 5 6 7 6 6 10 4 10 5 11 4 6 8 5 7 6 7 4 3 6 3 5 1 5 4 3 7 7 4 7 8 9 6 7 7 7 6 7 8 7 4 6 9 9 13 12 10 10 12 9 9 8 8 5 6 7 7 7 9 3 4 6 5 3 8 2 1 5 5 9 11 14 15 15 16 17 15
7 10 3 5 8 6 8 10 5 6 4 7 3 7 2 7 7 5 11 8 6 4 8 3 7 9 3 5 6 3 1 3 6 1 5 3 5 8 2 8 4 11 9 8 10 13 14 5 7 11 10 13 10 10 10 11 13 12 11 11 12 13 12 8 5 5 7 8 9 3 1 5 4 3 2 9 5 4 1 4 8 8 9 12 13 15 15 14
8 11 4 3 2 4 9 6 6 1 6 4 7 6 2 7 7 7 6 4 7 2 2 10 8 1 4 5 3 7 3 2 6 6 4 9 3 4 4 10 2 9 6 9 7 9 8 4 5 6 7 7 7 10 11 7 10 9 7 6 8 9 11 12 11 6 7 6 10 7 3 3 4 2 5 14 11 7 8 4 4 6 7 8 11 10 10 12
10 9 6 4 5 5 9 7 9 7 5 1 4 5 7 7 5 4 9 5 7 7 8 3 6 2 5 10 3 3 3 1 6 4 10 5 6 7 9 11 3 8 12 10 7 7 6 4 2 6 6 7 6 4 5 3 6 6 7 10 10 12 11 10 10 6 5 5 10 6 6 4 6 6 5 13 16 8 6 4 4 4 5 8 8 9 11 10
6 8 3 7 7 8 7 7 7 8 2 5 6 3 10 5 8 4 6 2 1 6 3 8 5 4 5 2 6 3 6 4 9 3 8 5 1 5 7 7 1 8 8 7 6 4 6 5 5 7 8 8 6 10 11 7 5 6 8 14 18 12 9 12 8 7 9 7 9 5 10 11 7 6 8 9 16 10 3 8 3 7 4 4 5 8 7 6
7 8 6 6 6 8 4 4 7 2 9 7 2 3 4 2 7 5 3 4 5 8 1 3 4 6 4 4 7 6 1 3 7 5 7 6 6 6 3 10 8 5 5 5 5 4 4 6 7 9 12 10 9 9 10 10 11 11 11 11 13 12 10 16 7 7 3 7 1 8 11 8 8 6 5 6 11 13 3 6 4 1 4 6 4 5 5 7
6 7 8 3 6 1 4 8 3 1 7 6 1 3 7 6 2 2 8 2 7 7 6 1 8 5 6 5 2 3 7 4 7 3 3 4 6 4 9 13 4 13 9 7 8 4 5 5 8 9 11 11 13 10 8 9 11 12 13 9 11 14 15 14 9 9 9 6 2 9 15 14 6 8 7 5 3 13 16 10 8 4 7 5 4 1 2 2
7 8 11 6 7 8 4 10 3 11 0 3 6 4 6 6 3 1 7 4 2 1 3 3 7 5 4 2 4 2 3 2 3 4 5 3 4 7 4 3 5 8 9 7 5 8 3 6 9 10 11 12 10 13 15 14 12 13 8 5 8 11 14 11 9 9 14 9 9 5 18 13 9 10 3 3 3 4 9 12 12 7 4 10 10 7 4 3
4 7 7 12 9 7 6 0 3 5 3 8 6 4 8 2 3 2 6 4 5 3 2 6 2 1 6 4 6 1 7 3 8 5 5 6 2 3 5 8 10 8 8 4 6 6 5 3 3 9 7 8 14 16 12 10 11 11 6 7 10 12 10 10 9 7 9 12 10 6 16 13 7 7 7 5 5 4 5 4 7 13 12 10 10 8 7 3
6 5 6 8 8 6 3 6 2 6 6 7 6 7 8 3 3 4 5 4 4 6 5 8 5 2 2 4 1 4 2 2 5 4 5 8 3 3 7 3 2 7 8 4 2 3 4 6 4 6 7 7 9 11 10 12 11 6 3 4 10 11 10 14 11 15 13 12 7 10 2 7 7 5 5 3 4 4 4 4 1 3 6 6 10 12 8 6
6 6 6 5 8 3 7 5 8 3 7 3 7 6 7 5 3 1 5 4 4 1 4 7 4 8 3 5 1 5 6 5 4 5 8 7 6 0 7 4 5 3 2 5 3 6 4 5 6 5 6 6 8 12 8 10 11 1 4 7 7 2 7 11 16 18 21 20 11 8 4 5 1 4 6 2 1 7 11 12 11 9 8 10 9 10 8 7
Wind_Direction
343 341 340 337 337 338 334 333 333 331 331 330 329 327 326 326 323 321 319 315 311 309 309 305 304 304 306 309 311 313 312 301 298 276 238 245 277 71 79 116 143 151 182 220 228 240 231 223 231 236 244 244 251 250 244 263 236 57 59 46 271 182 147 199 178 181 148 144 154 165 174 148 123 161 148 148 115 109 126 125 137 141 118 115 121 128 130 129
342 340 338 336 336 332 331 331 330 329 329 327 326 325 325 323 320 319 315 314 310 308 306 305 301 304 306 308 311 312 310 294 284 271 250 251 202 149 136 151 154 165 190 221 223 223 235 219 229 223 235 246 204 271 278 15 312 56 131 141 266 167 147 180 153 208 147 150 154 161 190 144 135 152 152 139 137 147 135 142 124 106 111 118 128 129 131 137
339 339 337 337 333 330 328 329 327 326 326 324 322 323 321 319 318 317 315 311 309 307 303 302 303 302 304 308 310 303 295 295 274 258 256 181 154 154 154 165 179 180 204 211 218 232 233 243 232 220 230 260 217 274 267 327 339 286 219 240 173 96 155 167 151 201 154 144 155 149 179 153 144 145 155 141 141 153 138 117 120 123 126 131 130 135 137 138
338 338 336 333 330 328 330 326 324 323 322 321 321 320 319 318 316 315 312 310 305 305 303 300 302 303 303 307 310 308 290 284 268 82 80 106 135 163 170 164 190 199 219 235 238 237 244 265 281 262 255 236 239 287 265 182 244 130 265 355 144 137 133 126 145 166 132 149 152 156 156 142 160 143 154 143 141 141 123 129 131 135 134 134 136 139 143 140
337 336 335 331 329 327 326 324 321 320 320 319 318 318 318 317 315 312 310 306 306 303 303 301 300 301 304 304 301 291 296 279 93 84 89 135 164 172 182 181 188 214 217 233 249 264 256 256 257 257 253 275 8 290 173 187 270 228 317 109 169 154 110 137 163 72 145 156 150 144 147 145 142 150 143 153 135 140 141 134 133 132 135 136 141 142 144 141
337 335 333 329 325 326 324 323 321 318 317 316 315 314 315 314 312 311 308 305 303 302 300 299 299 299 303 305 295 280 274 102 52 92 156 165 166 177 171 183 195 228 223 234 248 250 243 239 257 250 240 254 117 238 308 170 76 302 90 75 229 180 125 143 118 126 221 147 146 153 144 140 155 135 138 132 135 129 129 130 132 132 136 138 140 143 146 143
336 336 331 327 325 323 324 321 319 316 314 312 312 312 312 312 311 308 304 302 299 298 298 297 298 302 306 295 271 263 255 276 6 122 131 180 157 140 133 187 197 230 236 234 235 248 224 250 244 252 245 271 334 283 228 191 95 302 82 119 110 272 122 93 103 145 143 145 158 157 147 142 145 137 154 130 128 137 135 130 131 135 136 140 143 148 145 143
334 333 329 327 324 323 323 321 318 315 313 312 311 310 310 309 308 306 303 299 297 294 296 295 297 303 313 299 264 232 235 255 98 124 148 153 167 153 162 200 207 219 228 229 235 234 242 238 244 246 252 279 258 275 197 142 124 113 94 134 127 242 92 96 120 102 65 208 177 150 139 136 141 130 147 133 140 146 142 130 133 137 140 144 144 144 147 143
334 332 330 327 326 324 322 320 316 314 312 311 309 308 308 307 306 303 300 297 295 295 293 295 296 300 298 283 283 290 256 68 101 126 150 157 161 168 179 195 206 212 222 229 240 247 242 236 253 254 33 345 251 242 202 177 102 58 116 133 162 97 103 130 104 89 159 4 139 136 119 120 114 127 122 146 140 150 136 134 138 141 143 143 145 143 144 144
333 332 331 329 326 326 323 319 316 312 312 309 307 306 306 305 302 300 297 296 295 294 294 294 295 298 287 267 274 265 84 305 123 140 152 159 157 163 195 216 185 213 221 227 236 240 231 247 257 286 321 220 257 266 289 229 90 109 132 114 101 108 132 105 112 143 95 60 124 132 130 98 42 157 123 157 149 148 139 140 139 143 142 144 141 142 145 145
335 332 331 329 326 324 322 317 314 314 313 312 310 308 305 302 299 297 297 293 292 291 291 289 299 298 278 263 279 278 64 266 15 102 148 164 162 179 193 220 198 210 227 235 236 234 244 255 269 268 229 294 265 258 212 83 109 91 92 92 95 85 82 105 87 77 125 89 22 123 109 96 101 185 133 157 157 146 144 141 144 143 145 142 140 139 149 143
335 333 331 329 327 324 321 317 315 313 311 310 309 306 304 300 297 294 291 290 289 288 286 283 281 277 273 270 261 276 4 27 256 133 150 181 183 188 198 216 204 220 227 236 226 232 245 259 272 288 275 38 297 260 76 96 89 117 127 107 104 106 76 33 53 27 353 105 119 123 112 114 210 128 149 159 149 142 146 145 147 144 142 141 141 141 151 140
334 333 331 328 326 325 320 317 315 313 311 312 312 307 303 300 294 291 289 288 277 274 274 276 276 256 283 278 231 195 268 48 52 181 168 193 190 193 202 219 215 226 238 251 232 228 245 247 264 283 276 259 257 44 122 105 112 97 162 114 113 86 93 183 252 20 65 89 227 276 144 135 126 138 162 164 147 150 151 153 147 144 144 142 140 148 144 145
335 332 331 328 325 323 320 318 316 313 314 310 309 307 302 297 291 288 286 278 282 281 279 276 274 265 268 267 337 318 68 288 150 198 200 185 203 193 208 225 228 224 242 262 278 236 233 265 298 284 308 267 272 10 192 111 139 158 108 114 120 137 92 194 212 144 119 18 327 13 142 156 135 158 174 155 162 160 161 156 150 148 146 146 146 150 147 145
332 332 330 327 326 323 321 318 316 313 311 310 308 304 299 290 286 285 284 283 269 263 268 271 241 260 227 246 188 74 359 281 204 200 190 190 209 191 211 207 223 231 245 240 253 257 319 270 251 261 260 252 243 248 260 151 150 139 168 153 168 133 177 190 248 189 146 169 169 136 118 154 168 168 174 165 168 169 166 158 155 154 145 149 148 154 148 152
330 329 329 327 326 324 320 317 316 315 310 311 305 300 292 285 281 278 282 275 284 294 270 254 224 232 292 282 82 77 212 213 196 190 180 209 190 209 200 192 213 234 261 226 279 310 257 272 238 253 254 232 240 251 244 169 135 169 200 161 170 137 153 206 247 215 236 153 163 266 123 148 164 172 173 176 162 186 170 163 161 152 152 152 154 160 148 159
328 327 324 326 328 324 321 320 315 314 312 306 307 288 276 275 270 267 265 268 265 230 232 270 294 210 265 71 229 211 202 220 134 193 197 192 205 183 175 190 203 222 202 241 238 272 217 234 232 250 258 277 261 221 241 243 158 179 192 136 162 143 162 174 161 225 201 179 178 118 75 227 149 163 168 186 178 188 180 168 161 157 158 155 160 160 148 164
328 326 328 326 327 325 321 316 314 313 314 307 296 291 290 290 280 270 249 243 237 238 235 247 269 292 234 254 215 211 202 127 193 157 223 147 258 141 204 194 190 223 197 227 216 243 194 221 214 242 222 216 240 236 241 249 78 104 252 121 159 170 189 151 174 211 193 192 174 139 125 200 177 163 175 185 186 197 188 167 170 163 160 159 168 158 153 163
330 328 324 326 325 324 321 315 312 313 313 306 285 274 265 261 258 237 265 202 224 194 214 179 206 251 35 124 47 131 200 121 207 171 173 205 218 191 200 215 195 198 207 227 178 220 182 230 205 235 234 211 214 236 243 165 133 165 182 126 171 221 199 181 177 179 184 176 183 177 171 195 172 169 173 180 195 199 190 180 170 165 161 166 172 157 157 165
328 325 325 324 325 322 320 315 313 312 321 307 266 232 226 217 183 208 209 237 243 289 347 149 212 235 221 185 175 61 57 148 213 218 166 212 195 188 201 211 189 216 219 218 162 215 178 215 214 216 228 230 224 235 244 248 130 118 118 120 115 284 146 91 182 170 180 176 192 170 196 171 175 171 175 177 182 192 191 193 179 173 166 173 179 157 163 168
321 324 324 324 320 324 315 314 305 304 308 281 289 286 296 9 340 45 339 230 225 238 254 275 289 316 346 68 97 209 208 180 243 174 219 142 226 172 184 200 193 211 220 226 208 164 215 221 225 225 224 239 246 239 262 283 187 145 157 147 159 206 109 94 97 141 112 157 220 149 191 174 184 174 169 180 185 190 203 197 189 178 171 179 179 160 166 166
325 322 324 321 320 315 316 307 307 302 287 260 266 278 287 4 345 328 310 303 178 319 201 271 288 242 181 281 8 88 225 186 212 173 178 200 169 221 143 220 196 216 201 229 224 174 211 229 227 232 229 235 244 226 249 260 246 234 154 146 128 135 102 100 94 104 125 115 320 155 183 197 178 184 186 189 184 186 194 223 212 183 178 174 184 162 164 167
324 324 321 323 319 316 312 311 303 306 267 227 243 260 288 1 313 348 312 280 265 86 227 207 196 219 199 231 245 215 222 200 188 171 172 222 194 231 164 214 201 226 210 215 222 197 214 222 235 229 234 238 222 240 241 249 260 277 216 149 191 155 167 143 119 117 181 127 221 187 189 182 132 25 286 291 252 154 126 74 310 222 186 179 181 169 173 168
321 320 323 319 320 316 313 313 303 259 228 238 259 286 341 332 352 317 322 289 265 128 231 154 268 208 199 240 161 219 234 179 221 171 155 211 228 186 240 204 214 220 225 204 232 230 219 229 206 232 234 223 234 238 284 319 267 235 264 192 151 166 187 151 137 139 146 72 40 263 81 238 176 186 236 284 294 331 14 159 228 272 190 190 179 177 172 175
320 321 321 320 320 316 317 317 267 231 236 225 245 265 353 337 303 358 308 303 222 101 58 140 271 317 62 319 181 224 223 199 232 150 166 214 214 181 243 203 251 213 235 201 228 247 243 240 199 220 229 223 186 218 215 252 255 259 235 248 165 178 144 110 136 133 106 340 228 179 185 200 201 194 197 179 295 264 312 253 225 263 203 191 186 175 179 190
320 317 320 317 317 319 330 297 242 294 295 264 21 356 352 335 22 331 309 285 140 93 179 152 254 144 326 195 162 244 255 250 171 148 187 207 251 247 180 239 224 224 216 222 217 237 248 229 223 198 230 196 193 221 241 218 257 255 355 264 176 176 138 142 152 150 115 163 162 204 230 11 158 199 195 174 189 230 263 233 225 222 208 190 195 176 191 178
319 316 316 312 314 340 285 321 344 313 292 72 350 8 360 334 52 316 293 240 138 45 200 85 204 93 258 146 199 176 231 115 81 120 212 175 231 179 275 211 195 255 264 231 205 221 240 259 191 230 221 194 188 213 234 248 242 243 5 360 323 152 143 155 155 163 148 125 159 174 233 221 194 220 197 177 182 194 217 219 212 205 201 187 198 184 186 186
319 316 310 306 294 216 295 319 310 307 329 6 6 329 343 40 311 267 260 307 63 226 48 135 12 136 235 179 224 244 59 123 219 139 240 166 239 210 229 277 223 203 234 197 234 180 231 231 208 215 266 174 210 227 219 228 247 180 334 266 288 187 218 173 161 173 142 149 162 190 190 215 225 182 175 179 181 197 205 210 207 202 197 195 193 195 185 186
319 317 311 305 300 241 259 260 304 292 298 339 344 343 315 349 277 299 294 309 51 292 352 118 3 208 216 142 215 269 159 204 265 126 201 187 221 275 219 215 280 230 230 231 228 207 216 310 116 237 198 202 227 209 246 228 221 259 359 15 282 259 205 212 205 166 156 201 211 190 184 195 198 151 168 188 192 196 200 204 203 202 207 195 200 196 188 183
318 318 317 314 293 217 214 222 236 251 291 328 339 303 301 257 267 259 238 75 210 127 228 72 235 158 181 178 188 207 198 177 159 175 167 224 194 227 268 304 275 246 229 231 254 268 20 177 235 209 253 262 239 254 239 247 245 69 234 343 254 316 334 297 286 282 164 190 234 176 181 223 240 177 175 178 205 194 177 197 199 201 213 206 196 200 189 185
318 312 309 307 265 321 313 260 214 239 276 347 310 302 289 280 254 288 28 35 246 82 219 164 116 157 190 200 185 184 216 116 163 224 164 224 213 206 242 220 284 234 230 234 245 254 253 186 177 293 278 246 257 251 233 260 253 272 248 214 258 234 219 251 245 189 250 261 74 100 149 221 256 162 186 203 196 184 176 186 190 191 197 192 189 221 198 185
315 303 276 234 284 334 268 291 333 327 339 309 321 291 270 283 222 261 67 163 265 99 227 109 151 216 202 234 285 194 181 161 126 201 189 199 179 200 193 247 178 217 220 221 229 218 221 237 85 230 253 270 223 243 228 223 225 202 245 265 251 231 209 221 192 230 233 274 69 118 131 106 255 291 254 195 200 185 182 179 187 194 184 190 191 202 203 190
312 295 261 244 262 245 246 254 277 309 303 283 285 281 266 289 310 354 51 312 84 334 80 258 182 264 211 177 242 198 122 233 117 226 207 185 211 200 193 241 163 241 245 184 238 196 205 209 207 232 217 224 261 233 210 214 182 206 227 235 225 240 195 255 262 290 270 80 117 172 173 217 339 291 252 231 181 183 185 180 182 200 189 191 191 198 198 192
302 305 273 192 201 233 264 281 298 303 299 289 267 273 262 267 55 264 35 66 55 113 244 13 192 306 132 239 209 142 203 103 250 198 226 172 214 189 195 230 269 199 256 245 218 200 229 193 208 198 214 184 227 242 267 231 171 203 216 228 235 250 235 222 243 269 282 285 136 151 184 198 203 17 275 139 161 177 183 181 178 184 198 200 193 200 200 196
306 275 234 260 230 247 243 249 257 262 282 285 281 290 309 35 345 5 0 8 5 233 46 73 251 221 140 260 66 353 318 183 190 216 202 217 201 232 207 195 197 265 265 257 233 245 214 249 183 182 208 167 205 238 269 296 315 235 187 209 241 240 286 254 170 238 268 266 140 206 117 328 342 29 345 133 156 169 170 178 179 187 189 196 194 199 202 197
308 239 178 247 238 251 227 222 224 220 268 286 284 273 232 358 11 341 51 298 283 40 99 196 237 251 252 165 120 243 165 283 210 218 197 237 198 238 55 287 205 225 289 215 15 260 247 218 223 160 200 173 199 213 229 255 235 152 185 206 220 248 262 280 287 250 262 251 250 129 158 190 297 286 180 151 177 174 179 181 186 186 190 190 192 191 198 217
257 257 214 244 242 241 299 270 255 245 265 281 293 323 328 75 342 2 9 330 8 342 275 342 69 311 293 102 119 215 148 237 175 262 143 216 174 210 214 117 305 341 299 5 291 291 306 36 120 143 205 176 191 200 229 214 246 290 259 198 197 230 269 270 259 204 218 245 213 153 145 159 182 178 174 179 174 179 181 180 182 186 189 194 191 183 181 198
302 281 283 260 1 337 250 243 237 258 268 281 295 357 304 2 39 21 349 302 277 211 350 288 133 302 35 310 95 276 135 273 118 216 205 166 83 320 293 27 159 269 344 288 280 335 317 249 173 164 221 148 163 242 222 226 232 242 257 1 254 184 212 244 294 272 280 249 284 127 179 191 195 104 168 183 181 178 191 170 177 182 187 190 189 181 190 205
275 275 265 208 183 221 260 282 261 283 287 299 301 200 141 113 340 45 304 326 267 14 303 2 346 160 341 6 41 236 88 296 112 206 209 70 295 149 277 281 156 261 257 266 253 274 241 274 258 210 216 180 180 206 232 200 224 245 273 262 292 282 219 212 202 251 244 276 251 277 199 122 111 161 168 188 194 190 188 183 185 185 188 186 186 181 179 200
265 252 246 161 200 128 255 258 256 260 254 265 359 6 3 348 328 83 332 323 12 341 11 341 240 340 139 41 197 319 72 333 256 95 252 152 188 97 261 164 293 198 119 252 278 291 301 103 275 154 246 241 223 187 227 211 197 209 227 250 256 261 347 315 216 203 219 242 236 259 210 141 153 196 188 114 110 148 139 180 179 176 186 192 184 186 183 188
280 274 333 192 139 255 230 250 250 248 253 213 208 349 15 357 331 10 257 121 285 185 323 305 336 324 314 144 260 68 252 106 246 358 77 336 333 169 27 1 326 334 353 253 259 252 276 214 245 189 222 235 243 182 224 229 207 205 219 227 248 221 217 224 265 265 235 205 224 255 287 97 82 194 133 131 183 143 100 174 194 185 189 189 181 186 181 182
287 273 137 316 89 227 236 257 240 258 282 69 41 354 38 315 290 52 293 105 315 333 133 313 106 299 320 30 311 113 328 81 9 104 105 275 102 321 91 292 286 303 307 251 227 26 347 2 318 285 260 280 242 199 185 249 250 234 203 227 213 253 253 225 250 236 256 254 277 250 168 106 110 136 82 105 124 2 136 207 235 203 184 185 185 183 182 174
259 275 49 232 95 245 256 263 276 251 339 51 338 221 265 216 327 31 326 51 320 59 311 181 353 339 20 336 320 358 281 166 161 231 72 225 71 33 100 312 17 267 250 9 342 30 316 266 283 274 296 302 284 266 174 209 243 250 222 217 200 223 242 270 252 253 276 299 267 228 166 85 7 16 177 101 55 281 278 181 232 184 177 176 172 182 177 177
280 287 167 83 211 237 264 285 330 330 110 84 295 24 87 355 324 350 349 53 338 279 75 337 111 144 347 180 339 19 85 330 332 131 250 205 136 39 29 289 312 296 297 45 324 13 288 195 267 304 292 281 281 249 191 195 225 236 243 220 266 243 233 257 276 296 278 257 287 320 40 181 163 136 95 113 144 228 261 177 205 165 179 164 169 159 166 166
308 293 293 139 213 212 264 289 302 288 95 1 284 192 166 180 65 311 315 61 296 20 324 95 324 302 257 346 324 93 347 182 236 38 353 18 105 246 139 301 336 321 34 30 348 311 298 332 271 261 258 252 237 250 121 164 236 270 309 271 218 238 237 218 238 246 268 308 308 290 111 150 156 155 121 108 129 163 227 275 357 318 180 166 146 155 165 161
276 291 206 180 190 205 249 282 277 336 153 207 224 84 288 82 119 124 278 339 25 285 48 304 144 309 343 107 284 109 237 31 343 126 256 127 201 226 33 287 3 341 32 29 313 253 279 306 277 284 290 290 342 334 290 282 284 271 228 249 277 216 222 252 245 253 233 199 221 73 127 149 153 161 146 121 115 132 226 302 3 338 25 84 131 145 148 141
299 277 282 288 140 264 253 109 240 214 0 59 333 317 281 317 330 154 345 327 84 323 241 335 12 289 22 262 345 314 110 321 176 105 255 255 21 21 174 267 225 131 150 254 230 266 264 271 248 244 258 267 281 277 298 292 285 268 244 224 265 284 233 220 233 262 296 322 147 75 101 111 113 97 65 81 112 131 146 276 285 76 33 336 73 53 116 149
256 287 290 350 296 260 271 213 286 210 161 239 83 192 303 260 161 332 132 86 297 97 324 80 291 138 229 36 310 335 323 285 336 22 351 310 312 206 237 214 224 146 190 229 208 258 330 301 293 261 243 236 239 259 255 262 267 273 277 268 242 259 269 271 206 224 286 268 201 112 96 96 113 124 123 112 139 137 158 200 233 221 146 128 62 260 319 62
286 319 332 37 265 351 331 2 9 344 235 19 22 278 227 310 95 215 330 355 49 266 359 48 293 33 10 170 168 172 267 0 344 325 330 312 273 325 329 1 289 312 320 331 33 53 339 263 305 299 298 278 247 233 228 220 230 242 261 316 338 320 334 292 251 265 255 273 299 350 90 93 79 101 99 103 101 79 133 150 156 179 187 143 164 203 199 136
335 341 330 335 304 290 329 25 227 257 298 86 272 242 360 225 13 172 155 319 349 78 20 247 208 327 15 357 66 46 271 124 209 285 180 266 312 336 293 323 350 352 285 316 346 50 334 319 320 292 284 275 275 276 235 232 241 250 271 333 337 334 316 326 326 316 322 272 297 19 91 82 66 91 108 99 85 113 132 160 146 156 182 187 160 150 149 179
338 316 341 310 304 283 267 272 235 240 261 156 231 135 241 173 332 1 38 317 345 355 336 12 11 14 258 20 126 164 184 118 256 251 215 233 282 178 288 87 305 274 290 303 261 334 270 313 304 282 282 268 272 270 2 319 251 222 305 354 19 360 347 3 352 9 342 330 319 295 7 71 73 33 34 104 131 108 95 110 149 63 72 83 126 134 135 148
338 343 319 297 281 36 279 208 272 295 237 33 31 73 291 75 12 2 241 150 293 317 327 319 353 306 138 243 322 356 3 328 322 359 355 354 311 28 215 273 230 300 357 282 135 256 302 320 302 304 267 269 307 342 330 340 8 274 143 44 55 351 21 29 29 11 22 4 354 348 14 188 82 107 118 353 78 72 39 19 24 16 21 71 104 107 139 145